WX9WTF Weather Reports


Display with metric or nautical units.
time (UTC)temp
F
wind
direction
speed
MPH
gust
MPH
rain 1hr
in
rain 24hr
in
rain mn
in
humidity
%
barometer
mb
20260505111717 49 80 6.0 9.0 0.00 0.57 0.57 80 1009.7
20260505111214 49 46 8.0 12.0 0.00 0.57 0.57 80 1009.4
20260505110709 50 23 5.0 13.0 0.00 0.57 0.57 81 1009.4
20260505110207 50 65 6.0 9.0 0.00 0.57 0.57 80 1009.4
20260505102142 50 69 5.0 13.0 0.00 0.57 0.57 79 1009.5
20260505101641 50 44 9.0 13.0 0.00 0.57 0.57 80 1009.4
20260505101137 50 57 5.0 10.0 0.00 0.57 0.57 82 1009.3
20260505100633 49 60 6.0 9.0 0.00 0.57 0.57 83 1009.5
20260505100130 49 36 6.0 14.0 0.00 0.57 0.57 83 1009.5
20260505095626 49 58 5.0 15.0 0.00 0.57 0.57 84 1009.4
20260505095123 49 23 7.0 9.0 0.00 0.57 0.57 84 1009.4
20260505094620 49 68 5.0 15.0 0.00 0.57 0.57 84 1009.0
20260505094116 49 55 7.0 13.0 0.00 0.57 0.57 84 1008.8
20260505093612 49 36 6.0 15.0 0.00 0.57 0.57 85 1008.8
20260505093110 49 25 4.0 14.0 0.00 0.57 0.57 87 1008.7
20260505092607 48 21 7.0 13.0 0.00 0.57 0.57 89 1008.5
20260505092106 48 32 6.0 14.0 0.00 0.57 0.57 90 1008.5
20260505091602 48 344 4.0 13.0 0.00 0.57 0.57 91 1008.4
20260505091100 48 12 4.0 8.0 0.00 0.57 0.57 93 1008.7
20260505090558 48 8 2.0 8.0 0.00 0.57 0.57 93 1008.6
20260505090056 48 21 5.0 9.0 0.00 0.57 0.57 93 1008.6
20260505085553 48 328 7.0 11.0 0.00 0.57 0.57 94 1008.2
20260505085051 48 23 6.0 13.0 0.00 0.57 0.57 95 1008.0
20260505084549 48 19 7.0 9.0 0.00 0.57 0.57 96 1007.0
20260505084047 47 61 6.0 17.0 0.00 0.57 0.57 96 1006.0
20260505083543 47 32 7.0 16.0 0.00 0.57 0.57 96 1005.8
20260505083040 48 29 11.0 14.0 0.02 0.57 0.57 97 1005.2
20260505082536 48 75 13.0 18.0 0.07 0.57 0.57 97 1004.2
20260505082033 48 54 12.0 23.0 0.19 0.57 0.57 97 1005.1
20260505081529 48 45 10.0 12.0 0.31 0.56 0.56 97 1006.8
20260505081027 48 32 8.0 9.0 0.26 0.53 0.53 97 1008.3
20260505080523 49 41 3.0 7.0 0.24 0.50 0.50 97 1008.9
20260505080020 49 59 5.0 8.0 0.26 0.48 0.48 97 1009.4
20260505075515 49 54 3.0 4.0 0.24 0.46 0.46 96 1009.9
20260505075013 50 340 9.0 15.0 0.12 0.43 0.43 96 1009.9
20260505074510 51 3 3.0 6.0 0.09 0.42 0.42 97 1010.2
20260505074007 51 343 5.0 9.0 0.12 0.41 0.41 97 1010.1
20260505073504 51 291 6.0 11.0 0.12 0.40 0.40 97 1010.3
20260505073002 51 291 3.0 6.0 0.12 0.39 0.39 97 1009.4
20260505072458 52 254 3.0 4.0 0.14 0.38 0.38 97 1008.9
20260505071954 52 332 2.0 4.0 0.12 0.37 0.37 97 1008.0
20260505071450 52 12 4.0 8.0 0.09 0.35 0.35 96 1007.6
20260505070948 52 28 4.0 6.0 0.17 0.35 0.35 96 1007.6
20260505070444 52 28 5.0 9.0 0.24 0.34 0.34 95 1007.6
20260505065940 52 28 8.0 9.0 0.24 0.32 0.32 94 1007.9
20260505065437 52 15 4.0 6.0 0.31 0.29 0.29 94 1008.2
20260505064933 53 44 8.0 11.0 0.80 0.27 0.27 92 1007.6
20260505064431 54 37 8.0 14.0 1.09 0.24 0.24 91 1007.1
20260505063929 55 332 13.0 20.0 0.71 0.16 0.16 87 1007.3
20260505063425 56 1 13.0 19.0 0.12 0.06 0.06 84 1006.8
20260505062922 57 330 11.0 16.0 0.05 0.04 0.04 81 1006.7
20260505062419 59 334 10.0 11.0 0.05 0.04 0.04 78 1006.5
20260505061915 59 342 5.0 8.0 0.12 0.04 0.04 75 1006.4
20260505061414 60 310 4.0 8.0 0.12 0.03 0.03 73 1006.1
20260505060911 61 26 6.0 11.0 0.05 0.02 0.02 71 1005.8
20260505060408 63 37 6.0 12.0 0.02 0.01 0.01 67 1005.5
20260505055904 65 60 8.0 9.0 0.05 0.01 0.01 64 1005.2
20260505055400 68 36 6.0 14.0 0.02 0.00 0.00 61 1005.1
20260505054857 69 27 2.0 5.0 0.00 0.00 0.00 61 1004.9
20260505054354 69 23 2.0 10.0 0.00 0.00 0.00 62 1004.8
20260505053853 69 342 14.0 23.0 0.00 0.00 0.00 63 1005.2
20260505053349 67 266 6.0 8.0 0.00 0.00 0.00 78 1004.8
20260505052846 67 333 7.0 9.0 0.00 0.00 0.00 78 1004.9
20260505052343 66 329 4.0 4.0 0.00 0.00 0.00 81 1004.5
20260505051840 65 142 0.0 0.0 0.00 0.00 0.00 82 1004.4
20260505051337 65 22 0.0 0.0 0.00 0.00 0.00 83 1003.9
20260505050835 65 44 0.0 2.0 0.00 0.00 0.00 83 1003.6
20260505050334 65 50 0.0 1.0 0.00 0.00 0.00 82 1003.5
20260505041301 67 141 2.0 2.0 0.00 0.00 0.00 81 1004.1
20260505040758 67 165 0.0 2.0 0.00 0.00 0.00 81 1004.1
20260505040255 67 145 1.0 2.0 0.00 0.00 0.00 81 1004.2
20260505035752 67 147 0.0 3.0 0.00 0.00 0.00 81 1004.4
20260505035248 67 115 0.0 2.0 0.00 0.00 0.00 82 1004.2
20260505034745 67 149 0.0 0.0 0.00 0.00 0.00 81 1004.2
20260505034242 67 17 0.0 2.0 0.00 0.00 0.00 81 1004.1
20260505033738 67 150 0.0 2.0 0.00 0.00 0.00 81 1004.5
20260505033236 67 117 0.0 2.0 0.00 0.00 0.00 81 1004.4
20260505032734 68 160 0.0 1.0 0.00 0.00 0.00 81 1004.4
20260505032230 68 103 1.0 2.0 0.00 0.00 0.00 80 1004.0
20260505031727 68 114 1.0 2.0 0.00 0.00 0.00 79 1004.2
20260505031223 68 110 0.0 1.0 0.00 0.00 0.00 79 1004.0
20260505030721 68 109 0.0 1.0 0.00 0.00 0.00 78 1004.1
20260505030217 69 118 1.0 2.0 0.00 0.00 0.00 77 1003.9
20260505025713 69 31 0.0 1.0 0.00 0.00 0.00 76 1004.1
20260505025211 70 128 0.0 1.0 0.00 0.00 0.00 75 1003.9
20260505024709 70 162 0.0 3.0 0.00 0.00 0.00 75 1003.9
20260505024206 70 178 0.0 3.0 0.00 0.00 0.00 75 1003.7
20260505023703 69 191 0.0 2.0 0.00 0.00 0.00 76 1003.5
20260505023200 69 140 0.0 2.0 0.00 0.00 0.00 76 1003.5
20260505022658 69 15 0.0 1.0 0.00 0.00 0.00 76 1003.6
20260505022154 69 225 0.0 2.0 0.00 0.00 0.00 75 1003.3
20260505021651 70 129 0.0 0.0 0.00 0.00 0.00 74 1003.3
20260505021148 70 120 0.0 0.0 0.00 0.00 0.00 72 1003.4
20260505020643 71 241 0.0 2.0 0.00 0.00 0.00 71 1003.3
20260505020140 71 129 0.0 1.0 0.00 0.00 0.00 71 1003.2
20260505015637 71 164 0.0 1.0 0.00 0.00 0.00 70 1003.1
20260505015133 71 286 1.0 1.0 0.00 0.00 0.00 70 1003.1
20260505014630 71 195 0.0 0.0 0.00 0.00 0.00 70 1003.2
20260505014122 71 129 0.0 0.0 0.00 0.00 0.00 70 1002.9
20260505013620 71 71 0.0 0.0 0.00 0.00 0.00 69 1002.6
20260505013116 72 32 0.0 0.0 0.00 0.00 0.00 69 1002.6
20260505012614 72 129 0.0 0.0 0.00 0.00 0.00 68 1002.6
20260505012105 72 49 0.0 0.0 0.00 0.00 0.00 67 1002.4
20260505011601 72 49 0.0 0.0 0.00 0.00 0.00 66 1002.4
20260505011058 73 49 0.0 0.0 0.00 0.00 0.00 65 1002.3
20260505010553 73 49 0.0 0.0 0.00 0.00 0.00 64 1002.1
20260505010050 74 217 0.0 0.0 0.00 0.00 0.00 63 1002.4
20260505005546 75 230 0.0 0.0 0.00 0.00 0.00 62 1002.1
20260505005044 75 230 0.0 0.0 0.00 0.00 0.00 61 1002.2
20260505004540 77 15 0.0 0.0 0.00 0.00 0.00 59 1002.0
20260505004038 77 15 0.0 0.0 0.00 0.00 0.00 58 1002.0
20260505003535 77 217 0.0 1.0 0.00 0.00 0.00 58 1001.8
20260505003032 77 135 0.0 0.0 0.00 0.00 0.00 58 1001.9
20260505002532 77 164 0.0 0.0 0.00 0.00 0.00 58 1001.9
20260505002032 77 164 0.0 0.0 0.00 0.00 0.00 58 1002.0
20260505001528 77 167 1.0 2.0 0.00 0.00 0.00 58 1002.0
20260505001025 77 276 0.0 0.0 0.00 0.00 0.00 58 1001.9
20260505000523 78 147 0.0 1.0 0.00 0.00 0.00 57 1001.9
20260505000020 78 147 0.0 1.0 0.00 0.00 0.00 57 1002.0
20260504235517 78 164 2.0 3.0 0.00 0.00 0.00 56 1002.0
20260504235013 79 223 0.0 2.0 0.00 0.00 0.00 55 1001.8
20260504234510 79 233 0.0 2.0 0.00 0.00 0.00 56 1002.1
20260504234007 79 261 0.0 2.0 0.00 0.00 0.00 55 1002.0
20260504233502 80 264 2.0 3.0 0.00 0.00 0.00 52 1002.0
20260504233000 80 302 0.0 2.0 0.00 0.00 0.00 54 1001.9
20260504232457 80 193 1.0 2.0 0.00 0.00 0.00 51 1002.1
20260504231954 81 344 2.0 4.0 0.00 0.00 0.00 50 1002.1
20260504231450 82 207 0.0 4.0 0.00 0.00 0.00 47 1001.9
20260504230947 82 252 2.0 5.0 0.00 0.00 0.00 45 1002.0
20260504230443 83 190 3.0 4.0 0.00 0.00 0.00 48 1002.1
20260504225943 83 258 3.0 6.0 0.00 0.00 0.00 44 1002.0
20260504225439 84 245 3.0 3.0 0.00 0.00 0.00 48 1002.1
20260504224936 84 244 1.0 3.0 0.00 0.00 0.00 49 1002.1
20260504224432 84 240 3.0 7.0 0.00 0.00 0.00 46 1002.1
20260504223930 84 249 2.0 2.0 0.00 0.00 0.00 47 1001.9
20260504223425 83 259 2.0 5.0 0.00 0.00 0.00 46 1002.1
20260504222921 83 275 3.0 8.0 0.00 0.00 0.00 46 1002.1
20260504222419 84 259 2.0 3.0 0.00 0.00 0.00 46 1002.1
20260504221917 83 235 2.0 4.0 0.00 0.00 0.00 46 1002.2
20260504221413 83 133 4.0 4.0 0.00 0.00 0.00 46 1002.2
20260504220910 82 253 4.0 10.0 0.00 0.00 0.00 48 1002.1
20260504220407 82 235 3.0 6.0 0.00 0.00 0.00 47 1002.0
20260504215904 84 231 2.0 11.0 0.00 0.00 0.00 45 1002.2
20260504215401 84 273 2.0 5.0 0.00 0.00 0.00 46 1002.4
20260504214857 84 277 4.0 4.0 0.00 0.00 0.00 48 1002.4
20260504214354 84 210 2.0 3.0 0.00 0.00 0.00 47 1002.4
20260504213851 83 240 2.0 4.0 0.00 0.00 0.00 47 1002.3
20260504213346 83 245 3.0 5.0 0.00 0.00 0.00 45 1002.5
20260504212844 84 238 2.0 5.0 0.00 0.00 0.00 49 1002.5
20260504212340 83 179 2.0 3.0 0.00 0.00 0.00 51 1002.4
20260504211838 83 239 1.0 2.0 0.00 0.00 0.00 47 1002.6
20260504211333 82 235 2.0 3.0 0.00 0.00 0.00 47 1002.7
20260504210831 81 220 2.0 6.0 0.00 0.00 0.00 49 1002.7
20260504210328 82 245 6.0 6.0 0.00 0.00 0.00 47 1002.7
20260504205825 82 232 3.0 4.0 0.00 0.00 0.00 47 1002.8
20260504205323 81 261 2.0 6.0 0.00 0.00 0.00 45 1002.8
20260504204821 82 237 2.0 5.0 0.00 0.00 0.00 47 1002.8
20260504204319 84 191 0.0 4.0 0.00 0.00 0.00 44 1002.9
20260504203818 84 255 5.0 5.0 0.00 0.00 0.00 46 1002.8
20260504203315 83 274 2.0 3.0 0.00 0.00 0.00 46 1003.1
20260504202810 83 190 3.0 3.0 0.00 0.00 0.00 45 1002.9
20260504202308 83 185 2.0 8.0 0.00 0.00 0.00 46 1002.9
20260504201804 83 246 2.0 4.0 0.00 0.00 0.00 46 1003.0
20260504201302 83 232 2.0 5.0 0.00 0.00 0.00 45 1003.0
20260504200759 83 292 5.0 9.0 0.00 0.00 0.00 43 1003.0
20260504200255 83 241 4.0 4.0 0.00 0.00 0.00 47 1003.2
20260504195752 83 208 2.0 4.0 0.00 0.00 0.00 48 1003.2
20260504195247 82 266 2.0 5.0 0.00 0.00 0.00 45 1003.2
20260504194745 82 255 2.0 5.0 0.00 0.00 0.00 47 1003.0
20260504194241 83 203 0.0 3.0 0.00 0.00 0.00 50 1003.3
20260504193737 82 205 2.0 4.0 0.00 0.00 0.00 45 1003.3
20260504193235 82 195 2.0 2.0 0.00 0.00 0.00 49 1003.3
20260504192733 81 253 3.0 6.0 0.00 0.00 0.00 49 1003.2
20260504192231 82 171 4.0 6.0 0.00 0.00 0.00 50 1003.3
20260504191729 82 241 2.0 4.0 0.00 0.00 0.00 48 1003.4
20260504191226 81 231 3.0 4.0 0.00 0.00 0.00 48 1003.4
20260504190721 80 262 4.0 8.0 0.00 0.00 0.00 47 1003.7
20260504190218 81 256 4.0 5.0 0.00 0.00 0.00 48 1003.7
20260504185714 80 235 3.0 4.0 0.00 0.00 0.00 47 1003.6
20260504185211 80 195 3.0 5.0 0.00 0.00 0.00 50 1003.5
20260504184707 80 244 6.0 10.0 0.00 0.00 0.00 49 1003.7
20260504184203 79 250 4.0 7.0 0.00 0.00 0.00 50 1003.8
20260504183659 80 239 2.0 4.0 0.00 0.00 0.00 46 1003.9
20260504183156 79 201 3.0 5.0 0.00 0.00 0.00 47 1003.9
20260504182654 80 256 6.0 12.0 0.00 0.00 0.00 47 1003.8
20260504182151 79 240 4.0 7.0 0.00 0.00 0.00 50 1003.6
20260504181649 78 252 4.0 4.0 0.00 0.00 0.00 48 1003.9
20260504181146 78 258 4.0 6.0 0.00 0.00 0.00 49 1004.0
20260504180645 79 209 0.0 4.0 0.00 0.00 0.00 50 1003.8
20260504180144 78 274 2.0 4.0 0.00 0.00 0.00 51 1004.1
20260504175640 78 195 4.0 4.0 0.00 0.00 0.00 50 1004.2
20260504175137 78 181 2.0 5.0 0.00 0.00 0.00 51 1004.2
20260504174636 79 186 1.0 6.0 0.00 0.00 0.00 55 1004.1
20260504174131 78 185 0.0 4.0 0.00 0.00 0.00 50 1004.0
20260504173629 78 172 2.0 3.0 0.00 0.00 0.00 57 1004.1
20260504173126 77 170 2.0 6.0 0.00 0.00 0.00 54 1003.9
20260504172622 78 251 4.0 5.0 0.00 0.00 0.00 48 1004.0
20260504172119 78 202 2.0 4.0 0.00 0.00 0.00 49 1004.0
20260504171616 77 236 3.0 6.0 0.00 0.00 0.00 51 1004.5
20260504171113 77 269 4.0 10.0 0.00 0.00 0.00 51 1004.1
20260504170609 77 244 1.0 6.0 0.00 0.00 0.00 55 1004.4
20260504170107 77 239 3.0 5.0 0.00 0.00 0.00 49 1004.4
20260504150952 72 217 3.0 3.0 0.00 0.00 0.00 58 1004.8
20260504150449 71 158 3.0 3.0 0.00 0.00 0.00 58 1004.9
20260504140916 67 269 0.0 4.0 0.00 0.00 0.00 61 1005.1
20260504140412 67 207 1.0 4.0 0.00 0.00 0.00 60 1004.9
20260504130337 65 235 0.0 3.0 0.00 0.00 0.00 64 1004.9
20260504120300 61 118 2.0 3.0 0.00 0.00 0.00 66 1004.8